Temperature
19 19 19 19 19 19 19 19 19 19 19 19 19 19 19 19 19 19 19 19 19 19 19 19 19 19 18 19 19 19 19 19 19 19 19 19 19 19 19 18 18 18 18
19 19 19 19 19 19 19 19 19 19 19 19 19 19 18 18 18 18 18 18 18 19 19 18 18 18 18 18 18 18 19 19 19 19 18 18 18 18 18 18 18 18 18
19 19 19 19 18 18 18 18 18 18 18 18 18 18 18 18 18 18 18 18 18 18 18 18 18 18 18 18 18 18 19 19 19 18 18 18 18 18 18 18 18 18 18
18 18 18 18 18 18 18 18 18 18 18 18 18 18 18 18 18 18 18 18 18 18 18 18 18 18 18 18 18 18 18 18 18 18 18 18 18 18 18 18 18 18 18
18 18 18 18 18 18 18 18 18 18 18 18 18 18 18 18 18 18 18 18 18 18 18 18 18 18 18 18 18 18 18 18 18 18 18 18 18 18 18 18 18 18 18
18 18 18 18 18 18 18 18 18 17 17 17 17 17 17 17 17 18 18 18 18 18 18 18 18 18 18 18 18 18 18 18 18 18 18 18 18 18 18 18 18 18 18
18 18 18 18 18 18 18 18 17 17 17 17 17 17 17 17 17 17 17 17 17 18 18 18 17 18 18 18 18 18 18 18 18 18 18 18 18 18 18 18 18 18 18
19 18 18 18 18 17 17 17 17 17 17 17 17 17 17 17 17 17 17 17 17 17 17 17 17 18 18 18 18 18 18 18 18 18 18 18 18 18 18 18 18 18 18
19 18 18 18 17 17 17 17 17 17 17 17 17 16 16 17 16 17 17 17 17 17 17 17 17 17 18 18 18 18 18 18 18 18 18 18 18 18 18 18 18 18 18
19 19 18 18 17 17 17 17 16 16 16 16 16 16 16 16 16 16 16 16 16 17 17 17 17 17 17 18 18 18 18 18 18 18 18 18 18 18 18 18 18 18 18
19 19 18 18 17 17 17 17 16 16 16 16 16 15 15 16 16 16 16 16 16 16 16 17 17 17 17 17 17 17 18 18 18 18 18 18 18 18 18 18 18 18 18
19 19 19 18 18 17 17 17 16 16 16 15 15 15 15 15 15 16 16 16 16 16 16 16 16 17 17 17 17 17 17 18 18 18 18 18 18 18 18 18 18 18 18
20 19 19 19 18 18 17 17 16 16 16 16 15 15 15 15 15 15 15 16 15 15 16 16 16 16 17 17 17 17 17 17 18 17 18 18 18 18 18 18 18 18 18
20 19 19 18 18 17 17 17 16 16 16 15 15 15 15 15 15 15 15 15 15 15 16 16 16 16 16 16 17 17 17 17 18 17 17 18 18 18 18 18 18 18 18
20 19 18 18 18 17 17 16 16 16 16 15 15 15 15 15 15 15 15 15 15 15 15 15 16 16 16 16 17 17 17 17 17 17 17 17 18 18 18 18 18 18 18
20 19 18 18 17 17 16 16 16 16 15 15 15 15 15 15 15 15 15 15 15 15 15 15 15 16 16 16 16 16 17 17 17 17 17 17 17 18 18 18 18 18 18
20 19 18 18 17 17 16 16 16 16 15 15 15 15 14 14 14 14 14 14 14 15 15 15 15 15 15 16 16 16 16 17 17 17 17 17 17 18 18 18 18 18 18
20 19 18 18 17 16 16 16 15 15 15 15 15 14 14 14 14 14 14 14 14 14 14 15 15 15 15 15 16 16 16 16 17 17 17 17 17 17 17 18 18 18 18
20 19 18 17 17 16 16 15 15 15 15 14 14 14 14 14 13 13 14 14 14 14 14 14 14 15 15 15 15 16 16 16 16 17 17 17 17 17 17 17 18 18 18
20 19 18 17 17 16 16 15 15 15 14 14 14 14 13 13 13 13 13 13 14 14 14 14 14 14 14 15 15 16 16 16 16 16 17 17 17 17 17 17 17 18 18
19 19 18 17 17 16 15 15 15 14 14 14 14 13 13 13 13 13 13 13 13 13 13 13 14 14 14 15 15 15 16 16 16 16 17 17 17 17 17 17 17 18 18
19 19 18 17 16 16 15 15 15 14 14 14 14 13 13 13 13 13 13 13 13 13 13 13 13 14 14 14 14 15 15 16 16 16 17 17 17 17 17 17 17 17 17
19 18 18 17 16 16 15 15 14 14 14 14 14 14 13 13 13 13 13 13 13 13 13 13 13 14 14 14 14 14 15 15 16 16 16 17 17 17 17 17 17 17 17
19 18 18 17 16 16 15 15 14 14 14 14 14 14 13 13 13 13 13 13 13 13 13 13 13 13 13 14 14 14 15 15 15 16 16 16 16 17 17 17 17 17 17
19 18 17 17 16 15 15 15 14 14 14 14 14 14 14 13 13 13 13 13 13 13 13 13 13 13 13 13 14 14 14 14 15 15 15 16 16 16 16 17 17 17 17
19 18 17 17 16 15 15 14 14 14 14 14 14 14 14 14 13 13 13 13 13 13 13 13 13 13 13 13 13 14 14 14 14 15 15 15 16 16 16 16 16 16 17
Wind_Speed
9 12 12 11 10 9 8 8 7 7 7 6 6 6 5 5 5 5 6 5 5 5 6 6 6 6 6 6 6 7 7 7 6 5 4 4 5 5 5 6 5 7 9
12 14 12 11 10 9 9 8 7 7 6 5 5 5 4 4 4 4 4 4 4 4 4 5 5 5 5 5 6 6 6 6 5 4 2 1 3 4 5 6 7 7 8
13 14 13 11 10 9 8 8 8 7 5 4 4 3 3 3 3 3 3 3 4 4 3 4 4 4 5 5 5 5 5 5 5 6 6 3 4 5 5 5 7 7 7
12 13 13 11 10 9 8 7 6 6 5 4 3 2 2 2 3 4 4 4 4 4 3 3 3 4 4 4 5 5 5 5 6 8 7 2 4 7 6 5 5 6 6
12 14 13 12 10 9 8 7 6 4 3 2 1 2 3 3 3 4 5 5 5 5 4 4 3 4 4 4 4 5 5 6 8 9 7 3 7 7 6 5 4 5 5
13 14 13 11 10 9 7 6 5 4 3 2 1 2 4 5 5 5 5 5 4 5 5 4 4 4 4 4 4 5 5 7 9 9 4 2 7 7 6 4 4 4 4
11 13 12 11 10 8 7 6 5 5 4 2 2 2 4 5 6 6 6 6 5 5 5 5 5 6 5 5 4 4 5 7 9 9 4 3 7 7 5 4 3 3 3
8 9 12 12 10 8 7 6 5 4 4 3 3 3 4 6 7 7 7 6 6 6 6 6 7 7 7 6 5 5 6 8 8 7 4 5 9 8 5 4 3 3 3
6 6 7 9 10 9 8 6 4 2 1 2 3 4 6 7 8 8 8 7 7 7 8 8 8 8 8 7 7 7 6 7 8 9 6 5 10 8 6 4 4 4 3
6 5 4 5 6 6 8 8 5 3 3 4 5 6 8 9 10 11 9 8 9 9 9 9 10 10 9 9 9 8 8 7 9 9 5 6 11 9 6 5 4 5 4
5 3 5 4 4 3 3 6 4 5 6 6 6 8 9 8 7 9 8 8 8 10 10 11 11 11 10 10 11 11 9 8 8 7 4 10 11 8 6 5 5 5 5
6 4 4 3 3 2 3 4 0 1 2 4 1 3 4 5 5 4 3 6 8 10 11 11 12 11 10 8 10 11 7 9 7 6 5 13 11 8 6 6 6 6 6
6 4 4 2 3 3 3 2 1 0 0 2 3 4 4 4 5 3 1 5 7 8 6 6 8 7 7 6 5 6 8 7 5 4 6 11 10 7 6 6 7 7 7
6 5 4 3 4 4 4 2 1 1 2 2 4 6 4 2 3 2 2 1 2 3 2 2 2 5 5 6 6 6 6 5 3 2 6 10 9 8 7 7 7 7 8
7 5 4 3 4 4 3 2 2 2 2 2 3 4 4 2 3 3 3 1 1 1 1 2 3 4 4 4 5 6 5 4 4 4 5 10 10 9 8 8 8 8 9
6 6 6 3 3 3 3 3 3 2 1 2 3 5 5 3 2 3 4 3 2 2 2 2 3 3 3 3 5 5 5 4 4 4 5 9 10 11 10 10 9 9 9
6 6 6 3 3 4 5 5 3 1 3 2 2 5 6 5 3 3 4 4 3 4 3 2 3 2 2 3 5 5 4 3 4 4 4 7 9 11 12 12 11 11 10
6 6 6 3 3 5 4 3 3 3 3 2 3 5 8 8 7 3 3 4 3 3 2 3 2 2 2 2 3 4 3 3 5 5 4 6 7 8 12 14 12 12 11
6 6 7 5 3 4 3 0 1 2 2 2 4 5 7 9 9 4 3 3 4 3 2 4 2 2 2 3 3 4 3 3 4 5 5 5 5 7 9 14 14 13 12
5 6 7 6 3 4 2 2 2 2 3 2 2 3 5 5 6 5 4 3 3 3 3 3 3 3 2 2 4 3 2 3 3 4 5 3 3 6 8 11 11 11 13
6 5 7 5 5 4 2 1 2 2 2 2 2 3 4 4 5 4 4 4 3 3 3 3 2 3 2 2 2 3 3 3 3 4 3 2 2 3 5 8 9 10 10
6 5 6 6 5 5 2 0 0 1 1 1 0 1 3 4 4 5 4 4 3 2 2 3 2 1 2 2 1 1 1 1 2 4 3 3 3 2 3 6 7 8 9
7 6 5 5 6 5 4 1 2 1 2 1 1 1 1 2 2 3 5 4 3 2 2 2 2 2 1 2 2 1 0 1 2 2 3 2 3 2 3 3 4 7 9
7 6 6 6 5 5 4 3 1 1 1 1 1 1 2 2 1 2 3 4 4 3 3 3 3 2 1 2 2 2 1 1 1 2 2 1 2 3 3 3 3 4 6
8 7 5 6 6 5 4 3 1 2 2 2 2 2 2 1 1 1 2 3 3 3 3 3 3 2 1 1 1 2 2 2 2 0 1 2 2 2 2 2 1 1 3
9 7 6 6 6 5 3 3 2 1 1 2 2 2 2 1 1 2 2 2 3 3 3 3 3 3 2 1 1 1 1 1 2 1 1 2 2 2 1 1 1 2 2
Wind_Direction
106 111 110 105 103 101 97 91 87 81 75 66 56 45 40 36 34 33 29 20 19 18 14 14 16 21 28 29 27 28 30 29 29 34 43 60 75 74 69 58 53 87 86
112 109 106 104 101 97 93 90 87 84 76 68 56 40 30 23 22 22 13 355 356 1 5 6 8 8 15 20 18 17 20 18 9 2 358 46 109 95 78 60 65 86 87
109 110 102 98 95 92 91 89 86 83 77 68 56 35 19 6 354 350 337 326 329 330 337 349 353 355 1 3 2 3 7 359 344 326 302 259 157 118 93 80 80 86 88
103 101 100 97 93 90 87 85 82 82 79 67 45 10 343 326 317 319 315 313 309 306 304 312 335 338 341 344 344 346 349 338 321 313 301 290 138 118 105 93 88 92 93
101 100 99 97 94 90 84 80 76 72 71 56 16 326 309 293 289 291 292 297 300 295 293 296 312 317 320 325 325 325 326 319 310 301 305 45 102 117 110 103 96 102 102
107 104 105 102 98 93 86 78 68 56 47 30 327 289 282 281 279 278 277 274 283 283 272 270 277 283 290 296 304 307 308 305 303 295 300 92 115 121 117 110 104 112 115
110 116 119 117 112 105 96 82 64 48 33 14 336 289 277 270 271 271 269 260 254 260 262 252 253 256 265 272 279 290 294 297 283 284 278 134 127 127 125 125 126 123 126
100 112 126 133 130 125 115 99 77 55 29 5 333 298 285 275 266 263 266 263 255 246 243 245 247 254 256 261 263 269 279 286 290 301 275 156 142 135 136 146 157 147 135
96 102 120 138 139 137 129 119 108 89 25 336 307 286 275 271 268 259 253 257 256 250 245 244 247 251 251 250 253 258 264 275 287 283 278 148 147 144 148 159 173 168 158
120 113 110 109 109 127 145 144 149 169 216 248 260 261 262 263 257 254 248 240 246 246 247 247 245 248 247 244 247 252 257 267 262 266 260 157 147 148 157 169 180 174 168
116 111 110 102 101 122 162 128 178 205 218 238 249 246 255 265 255 239 226 223 237 243 249 249 245 244 244 244 245 245 248 248 250 249 227 150 147 150 164 177 180 179 176
133 125 112 120 127 120 56 102 115 201 198 252 289 272 271 294 297 287 176 220 237 243 248 248 244 243 239 236 237 237 237 244 256 250 187 152 150 154 167 180 182 183 181
126 109 90 74 91 84 84 61 18 322 322 328 18 343 332 333 329 318 212 215 232 242 242 244 239 236 228 222 221 220 228 241 246 253 160 151 153 161 173 183 185 184 182
100 90 74 33 50 59 66 8 260 61 45 2 14 356 1 352 327 326 311 314 238 240 215 224 216 227 232 232 224 223 229 229 240 230 158 157 162 172 183 187 188 185 183
120 118 89 42 38 46 63 306 27 49 40 359 17 344 8 353 331 331 317 322 289 288 253 225 236 232 232 239 233 229 228 221 237 241 165 169 174 181 191 193 189 188 184
129 125 107 76 50 38 35 19 30 26 52 13 20 355 3 358 333 336 332 337 332 318 287 273 266 237 233 243 250 250 230 222 231 233 194 187 188 188 192 196 193 193 190
129 119 111 116 82 59 37 11 4 7 34 28 35 2 355 1 345 357 352 342 336 330 328 313 312 297 260 247 247 251 238 222 236 236 216 195 195 197 196 197 197 196 195
121 116 110 84 67 74 63 3 352 19 23 3 33 25 3 0 1 2 356 338 327 336 335 314 308 313 298 282 268 253 235 209 234 234 225 210 195 195 198 198 195 196 197
124 125 119 102 71 75 71 333 37 34 6 14 40 37 5 356 357 356 339 326 340 330 335 320 343 325 304 296 271 248 234 218 231 238 233 219 201 190 189 196 195 195 198
130 128 116 117 104 81 64 13 44 43 360 39 43 44 5 342 354 347 329 348 345 340 345 332 339 327 312 295 287 275 237 222 223 233 238 218 213 205 188 185 185 194 199
148 135 126 128 117 104 73 21 25 24 345 50 38 42 348 347 360 339 345 341 345 339 335 331 331 325 323 315 315 305 273 229 213 226 226 208 229 226 188 181 184 181 188
149 140 137 132 117 110 113 15 195 53 305 106 34 62 356 358 6 348 342 329 332 319 338 338 342 347 328 337 328 332 325 317 267 226 208 203 221 214 201 197 187 183 181
153 148 146 132 135 125 131 82 18 353 305 42 29 63 315 360 29 350 330 329 328 342 1 335 4 13 338 325 341 27 27 311 300 275 230 209 198 194 204 214 205 187 182
153 149 153 138 126 117 116 90 333 334 20 22 355 26 328 58 45 11 348 338 341 355 3 351 30 351 349 333 332 338 341 14 308 310 316 291 226 201 203 214 216 201 187
147 144 143 131 123 115 112 136 278 13 360 1 356 4 350 38 37 47 5 341 347 357 4 1 6 3 1 345 337 333 342 339 294 300 312 320 312 248 200 199 201 224 185
134 138 137 131 126 130 157 169 167 134 313 311 322 350 333 332 43 50 24 350 357 10 6 0 351 348 351 340 339 341 355 348 340 356 323 308 296 285 264 191 190 219 203
Height
1508 1508 1509 1510 1511 1512 1513 1514 1515 1516 1517 1518 1519 1519 1520 1521 1522 1522 1523 1523 1524 1524 1525 1525 1525 1525 1525 1525 1524 1524 1524 1524 1524 1524 1524 1524 1524 1525 1525 1525 1525 1525 1525
1508 1508 1509 1510 1511 1512 1513 1514 1515 1516 1517 1518 1518 1519 1520 1521 1521 1522 1523 1523 1524 1524 1524 1524 1525 1525 1525 1525 1525 1525 1525 1525 1525 1525 1525 1525 1525 1526 1526 1526 1526 1526 1526
1508 1509 1509 1510 1511 1512 1513 1514 1514 1515 1516 1517 1518 1519 1519 1520 1521 1521 1522 1523 1523 1523 1524 1524 1524 1524 1525 1525 1525 1525 1525 1525 1526 1526 1526 1526 1526 1526 1527 1527 1527 1527 1527
1509 1509 1510 1511 1511 1512 1513 1513 1514 1514 1515 1516 1517 1517 1518 1519 1520 1520 1521 1522 1522 1522 1523 1523 1524 1524 1524 1524 1524 1525 1525 1525 1526 1526 1526 1527 1527 1527 1527 1527 1527 1528 1528
1510 1510 1511 1511 1511 1512 1512 1513 1513 1513 1514 1514 1515 1516 1516 1517 1518 1518 1519 1520 1520 1521 1521 1522 1522 1523 1523 1523 1524 1524 1524 1525 1526 1526 1527 1527 1527 1527 1527 1528 1528 1528 1529
1511 1510 1511 1511 1512 1512 1512 1512 1512 1512 1512 1513 1513 1514 1514 1515 1516 1516 1517 1518 1518 1519 1520 1520 1521 1521 1522 1522 1523 1523 1523 1524 1525 1526 1526 1527 1527 1527 1527 1528 1528 1529 1529
1512 1511 1512 1512 1512 1511 1511 1511 1511 1511 1511 1511 1511 1512 1512 1513 1513 1514 1514 1515 1516 1517 1517 1518 1519 1520 1520 1521 1521 1522 1522 1523 1524 1525 1526 1526 1526 1527 1527 1528 1528 1529 1529
1513 1512 1512 1512 1511 1511 1511 1511 1510 1510 1510 1510 1510 1510 1510 1510 1511 1511 1512 1512 1513 1514 1515 1515 1516 1518 1518 1518 1520 1521 1521 1522 1523 1524 1525 1525 1526 1526 1527 1527 1528 1529 1529
1513 1514 1513 1512 1512 1511 1511 1510 1510 1509 1509 1508 1508 1508 1508 1508 1508 1509 1509 1510 1510 1511 1511 1512 1513 1514 1516 1516 1517 1519 1520 1520 1521 1523 1524 1524 1525 1526 1526 1527 1527 1528 1529
1513 1514 1514 1514 1513 1512 1511 1510 1509 1509 1508 1508 1508 1507 1507 1507 1507 1506 1507 1507 1508 1508 1508 1510 1510 1511 1513 1514 1515 1516 1518 1519 1520 1521 1522 1523 1524 1525 1525 1526 1527 1528 1529
1513 1514 1514 1514 1513 1512 1512 1510 1510 1509 1508 1507 1507 1507 1506 1506 1506 1506 1505 1506 1506 1506 1506 1507 1507 1508 1510 1511 1512 1514 1515 1517 1518 1519 1521 1522 1522 1523 1524 1525 1526 1527 1528
1513 1514 1514 1513 1513 1512 1512 1511 1510 1509 1508 1508 1507 1507 1506 1506 1505 1506 1505 1505 1504 1504 1504 1504 1505 1506 1507 1508 1510 1511 1513 1515 1516 1517 1519 1520 1521 1522 1523 1524 1525 1526 1528
1513 1513 1514 1513 1513 1512 1511 1510 1509 1509 1508 1508 1507 1506 1506 1505 1505 1504 1504 1503 1503 1502 1502 1502 1503 1503 1505 1506 1507 1508 1510 1512 1514 1515 1516 1518 1519 1520 1521 1522 1524 1525 1527
1512 1513 1513 1513 1513 1512 1510 1510 1509 1509 1508 1507 1506 1506 1505 1504 1504 1503 1502 1502 1501 1501 1501 1501 1501 1502 1502 1503 1504 1506 1508 1510 1511 1513 1515 1516 1517 1518 1520 1521 1522 1524 1525
1511 1512 1512 1512 1512 1511 1510 1509 1509 1508 1507 1506 1505 1505 1504 1503 1502 1502 1501 1501 1500 1500 1500 1500 1500 1500 1501 1501 1502 1504 1506 1507 1509 1511 1513 1514 1515 1516 1518 1519 1521 1522 1524
1510 1510 1510 1511 1511 1510 1509 1508 1508 1507 1506 1506 1505 1504 1503 1502 1501 1500 1500 1499 1499 1499 1499 1499 1499 1499 1499 1499 1500 1502 1504 1505 1506 1508 1510 1512 1513 1514 1515 1517 1519 1521 1522
1509 1509 1509 1510 1510 1509 1508 1507 1507 1506 1505 1505 1504 1503 1502 1502 1500 1499 1498 1498 1497 1497 1497 1497 1497 1497 1497 1498 1498 1500 1501 1502 1504 1506 1508 1509 1511 1512 1514 1515 1517 1519 1521
1507 1508 1508 1509 1509 1508 1507 1506 1506 1505 1504 1504 1503 1502 1501 1500 1499 1498 1497 1497 1496 1496 1496 1496 1496 1496 1496 1496 1496 1497 1499 1500 1502 1504 1505 1507 1508 1509 1511 1513 1515 1517 1519
1506 1507 1507 1507 1508 1507 1506 1506 1505 1504 1504 1503 1502 1501 1500 1499 1498 1497 1496 1495 1495 1494 1494 1494 1494 1494 1494 1494 1495 1496 1497 1498 1500 1501 1503 1504 1506 1507 1509 1511 1513 1515 1517
1505 1506 1506 1506 1506 1506 1505 1505 1504 1504 1503 1502 1501 1500 1498 1497 1497 1496 1495 1494 1493 1493 1493 1493 1492 1492 1493 1493 1493 1494 1495 1496 1497 1499 1500 1502 1503 1505 1507 1508 1511 1513 1515
1504 1505 1504 1505 1505 1505 1504 1504 1503 1503 1502 1502 1501 1499 1498 1497 1496 1495 1494 1493 1492 1492 1492 1492 1491 1491 1492 1492 1492 1493 1493 1494 1495 1496 1498 1499 1501 1502 1504 1506 1508 1510 1512
1502 1503 1504 1504 1504 1504 1503 1503 1503 1503 1502 1501 1500 1499 1497 1496 1495 1494 1493 1492 1492 1492 1491 1491 1491 1490 1491 1491 1492 1492 1492 1494 1493 1494 1496 1497 1499 1500 1502 1504 1506 1508 1510
1500 1502 1503 1503 1503 1503 1503 1502 1502 1502 1502 1501 1500 1499 1497 1496 1495 1493 1492 1492 1492 1491 1491 1491 1490 1490 1490 1491 1492 1492 1493 1492 1493 1494 1495 1496 1497 1498 1500 1502 1504 1506 1508
1498 1500 1501 1502 1502 1502 1502 1501 1501 1502 1501 1501 1500 1499 1497 1496 1495 1493 1492 1491 1491 1491 1490 1490 1490 1490 1490 1490 1491 1492 1493 1493 1494 1493 1494 1495 1496 1497 1498 1500 1502 1503 1506
1496 1498 1500 1500 1501 1500 1501 1500 1501 1501 1500 1500 1499 1498 1497 1496 1495 1494 1492 1491 1491 1490 1490 1490 1489 1489 1490 1490 1491 1491 1492 1492 1493 1493 1493 1494 1495 1496 1497 1498 1500 1501 1503
1494 1496 1498 1499 1499 1499 1499 1500 1500 1500 1499 1499 1499 1498 1497 1496 1495 1494 1493 1491 1491 1490 1489 1489 1489 1489 1489 1489 1490 1491 1491 1492 1492 1493 1493 1493 1494 1494 1495 1496 1498 1499 1501